Home > Weather > Riyadh > Past weeks

Flag for Saudi Arabia Weather for the Past 2 Weeks in Riyadh, Saudi Arabia

Now
63 °F

Clear.


Feels Like: 63 °F
Forecast: 42 / 69 °F
Wind: 8 mph from Northeast

Location: King Khaled International Airport

Current Time: Feb 9, 2016 at 7:06:25 PM

Latest Report: Feb 9, 2016 at 6:00 PM


Visibility: 10 mi

Pressure: 30.18 "Hg (28.15 "Hg at 590m altitude)

Humidity: 22%

Dew point: 23 °F

Location of RiyadhLocation

Historic Weather in Riyadh — Graph

°F

Riyadh Temperature Yesterday

Maximum temperature yesterday: 68 °F (at 2:00 PM)
Minimum temperature yesterday: 54 °F (at 7:00 AM)
Average temperature yesterday: 61 °F

High & Low Weather Summary for the Past Weeks

 TemperatureHumidityPressure
High81 °F (Feb 7, 2:00 PM)71% (Jan 27, 4:00 AM)30.42 "Hg (Jan 27, 4:00 AM)
Low34 °F (Jan 31, 6:00 AM)9% (Jan 30, 3:00 PM)29.92 "Hg (Feb 7, 3:00 PM)
Average55 °F35%30.20 "Hg
* Reported Jan 25 5:00 PM — Feb 9 5:00 PM, Riyadh, Weather by CustomWeather, © 2016

Note: Actual official high and low records may vary slightly from our data, if they occured in-between our weather recording intervals... More about our weather records

Advertising

Riyadh Weather History for the Previous 24 Hours

 ConditionsComfort  
Time TempWeatherWind HumidityBarometerVisibility
5:00 PM
Tue, Feb 9
64 °FSunny.9 mph22%30.18 "Hg10 mi
4:00 PM64 °FSunny.10 mph24%30.18 "Hg10 mi
3:00 PM64 °FSunny.10 mph26%30.18 "Hg10 mi
2:00 PM64 °FSunny.8 mph26%30.18 "Hg10 mi
1:00 PM63 °FSunny.9 mph30%30.21 "Hg10 mi
12:00 PM61 °FSunny.8 mph29%30.24 "Hg10 mi
11:00 AM59 °FSunny.10 mph34%30.30 "Hg10 mi
10:00 AM57 °FSunny.12 mph39%30.30 "Hg10 mi
9:00 AM54 °FSunny.10 mph47%30.30 "Hg10 mi
8:00 AM50 °FSunny.9 mph54%30.27 "Hg10 mi
7:00 AM48 °FSunny.6 mph50%30.24 "Hg10 mi
6:00 AM46 °FClear.No wind50%30.24 "Hg10 mi
5:00 AM46 °FClear.5 mph50%30.21 "Hg10 mi
4:00 AM48 °FClear.No wind50%30.21 "Hg10 mi
3:00 AM50 °FClear.3 mph47%30.21 "Hg10 mi
2:00 AM52 °FClear.7 mph41%30.21 "Hg10 mi
1:00 AM52 °FClear.7 mph41%30.21 "Hg10 mi
12:00 AM54 °FClear.8 mph35%30.21 "Hg5 mi
11:00 PM
Mon, Feb 8
54 °FClear.5 mph35%30.21 "Hg5 mi
10:00 PM55 °FClear.6 mph33%30.21 "Hg5 mi
9:00 PM59 °FClear.7 mph29%30.18 "Hg5 mi
8:00 PM61 °FClear.6 mph27%30.18 "Hg5 mi
7:00 PM63 °FClear.7 mph25%30.15 "Hg5 mi
Weather by CustomWeather, © 2016

See weather overviewHow to use our weather pages